EXS12C EGBB-LYTV

Flight info

Callsign EXS12C
Flight time 2h 40m
Altitude 37000
Route COWLY Q70 BIG L15 MOTOX DCT RUCAC DCT LESDO DCT ETINO DCT BEGAR DCT TRA DCT GAMSA N871 MADEB M738 TIRUL DCT DIRAB DCT RASUG DCT MONFA DCT SPL DCT NERRA/N0334F190 L607 BALHA L187 TAZ
Aircraft B738/M-SDE2E3FGHIRWXY/LB1

Departure

Time 2026-04-30 08:55
Airport Birmingham Airport (EGBB)

Arrival

Time 2026-04-30 11:35
Airport Tivat Airport (LYTV)
Time Latitude Longitude Altitude Speed Heading
2026-04-30 08:30 52.44993 -1.73430 322 ft 0 kts 326°
2026-04-30 08:40 52.44992 -1.73430 350 ft 0 kts 325°
2026-04-30 08:40 52.44993 -1.73430 350 ft 0 kts 325°
2026-04-30 08:40 52.44992 -1.73430 350 ft 0 kts 325°
2026-04-30 08:44 52.44976 -1.73412 320 ft 3 kts 324°
2026-04-30 08:44 52.44961 -1.73384 321 ft 4 kts 271°
2026-04-30 08:45 52.44968 -1.73345 320 ft 4 kts 236°
2026-04-30 08:45 52.44962 -1.73361 318 ft 4 kts 236°
2026-04-30 08:45 52.44958 -1.73370 318 ft 0 kts 236°
2026-04-30 08:47 52.44955 -1.73376 320 ft 2 kts 236°
2026-04-30 08:48 52.44943 -1.73406 322 ft 5 kts 235°
2026-04-30 08:48 52.44918 -1.73464 322 ft 8 kts 235°
2026-04-30 08:48 52.44903 -1.73535 322 ft 5 kts 265°
2026-04-30 08:48 52.44912 -1.73600 321 ft 7 kts 311°
2026-04-30 08:49 52.44953 -1.73657 322 ft 9 kts 330°
2026-04-30 08:49 52.45008 -1.73715 322 ft 10 kts 328°
2026-04-30 08:49 52.45077 -1.73761 321 ft 12 kts 343°
2026-04-30 08:49 52.45153 -1.73832 322 ft 14 kts 327°
2026-04-30 08:50 52.45237 -1.73925 322 ft 15 kts 325°
2026-04-30 08:50 52.45311 -1.74038 322 ft 12 kts 300°
2026-04-30 08:50 52.45352 -1.74174 322 ft 15 kts 296°
2026-04-30 08:50 52.45401 -1.74333 322 ft 17 kts 297°
2026-04-30 08:51 52.45449 -1.74490 321 ft 10 kts 296°
2026-04-30 08:51 52.45489 -1.74581 322 ft 11 kts 318°
2026-04-30 08:51 52.45554 -1.74658 321 ft 13 kts 324°
2026-04-30 08:51 52.45646 -1.74763 315 ft 19 kts 326°
2026-04-30 08:52 52.45772 -1.74904 308 ft 24 kts 326°
2026-04-30 08:52 52.45921 -1.75069 305 ft 27 kts 326°
2026-04-30 08:52 52.46056 -1.75219 304 ft 23 kts 326°
2026-04-30 08:52 52.46193 -1.75372 305 ft 25 kts 325°
2026-04-30 08:53 52.46339 -1.75534 303 ft 26 kts 326°
2026-04-30 08:53 52.46490 -1.75701 303 ft 26 kts 326°
2026-04-30 08:53 52.46590 -1.75812 305 ft 9 kts 325°
2026-04-30 08:53 52.46624 -1.75852 307 ft 5 kts 319°
2026-04-30 08:54 52.46633 -1.75915 308 ft 7 kts 250°
2026-04-30 08:54 52.46600 -1.76004 305 ft 11 kts 237°
2026-04-30 08:54 52.46557 -1.76088 304 ft 5 kts 200°
2026-04-30 08:54 52.46525 -1.76066 307 ft 6 kts 146°
2026-04-30 08:55 52.46377 -1.75899 310 ft 58 kts 143°
2026-04-30 08:55 52.45852 -1.75320 317 ft 121 kts 147°
2026-04-30 08:55 52.45016 -1.74410 467 ft 158 kts 144°
2026-04-30 08:55 52.44112 -1.73444 1278 ft 155 kts 142°
2026-04-30 08:56 52.43206 -1.72415 1911 ft 164 kts 141°
2026-04-30 08:56 52.42210 -1.71275 2333 ft 184 kts 142°
2026-04-30 08:56 52.41089 -1.70134 2877 ft 196 kts 154°
2026-04-30 08:56 52.39749 -1.69560 3620 ft 199 kts 161°
2026-04-30 08:57 52.38401 -1.69022 4382 ft 200 kts 160°
2026-04-30 08:57 52.37120 -1.68173 5119 ft 199 kts 149°
2026-04-30 08:57 52.35883 -1.67132 5838 ft 202 kts 150°
2026-04-30 08:57 52.34635 -1.65994 6364 ft 214 kts 146°
2026-04-30 08:58 52.33305 -1.64602 6606 ft 238 kts 146°
2026-04-30 08:58 52.31887 -1.63103 7163 ft 247 kts 146°
2026-04-30 08:58 52.30430 -1.61579 7855 ft 250 kts 146°
2026-04-30 08:58 52.28951 -1.60045 8639 ft 253 kts 146°
2026-04-30 08:59 52.27455 -1.58499 9375 ft 256 kts 146°
2026-04-30 08:59 52.25933 -1.56930 10054 ft 262 kts 147°
2026-04-30 08:59 52.24324 -1.55492 10694 ft 266 kts 152°
2026-04-30 08:59 52.22651 -1.54183 11355 ft 269 kts 153°
2026-04-30 09:00 52.20949 -1.52862 11998 ft 273 kts 153°
2026-04-30 09:00 52.19226 -1.51517 12672 ft 277 kts 153°
2026-04-30 09:00 52.17479 -1.50145 13334 ft 281 kts 153°
2026-04-30 09:00 52.15705 -1.48745 14029 ft 285 kts 153°
2026-04-30 09:01 52.13910 -1.47327 14682 ft 288 kts 153°
2026-04-30 09:01 52.12123 -1.45917 15378 ft 289 kts 153°
2026-04-30 09:01 52.10311 -1.44487 16088 ft 291 kts 153°
2026-04-30 09:01 52.08456 -1.43025 16796 ft 293 kts 153°
2026-04-30 09:02 52.04760 -1.40113 18166 ft 298 kts 153°
2026-04-30 09:02 52.02889 -1.38641 18765 ft 300 kts 152°
2026-04-30 09:02 52.01009 -1.37164 19388 ft 301 kts 152°
2026-04-30 09:03 51.99139 -1.35695 19964 ft 304 kts 152°
2026-04-30 09:03 51.97228 -1.34196 20534 ft 307 kts 152°
2026-04-30 09:03 51.95296 -1.32682 21111 ft 309 kts 152°
2026-04-30 09:03 51.93351 -1.31159 21687 ft 312 kts 152°
2026-04-30 09:04 51.91387 -1.29622 22262 ft 315 kts 152°
2026-04-30 09:04 51.89405 -1.28073 22823 ft 318 kts 152°
2026-04-30 09:04 51.87407 -1.26513 23380 ft 320 kts 152°
2026-04-30 09:04 51.85391 -1.24941 23916 ft 323 kts 152°
2026-04-30 09:05 51.83359 -1.23358 24379 ft 325 kts 152°
2026-04-30 09:05 51.81316 -1.21768 24867 ft 326 kts 152°
2026-04-30 09:05 51.79263 -1.20172 25360 ft 328 kts 152°
2026-04-30 09:05 51.77212 -1.18579 25878 ft 328 kts 152°
2026-04-30 09:06 51.75148 -1.16977 26323 ft 330 kts 152°
2026-04-30 09:06 51.73068 -1.15364 26737 ft 333 kts 152°
2026-04-30 09:06 51.70974 -1.13741 27183 ft 335 kts 152°
2026-04-30 09:06 51.68868 -1.12111 27629 ft 337 kts 152°
2026-04-30 09:07 51.66751 -1.10475 28068 ft 338 kts 152°
2026-04-30 09:07 51.64621 -1.08831 28482 ft 340 kts 152°
2026-04-30 09:07 51.62621 -1.06815 28854 ft 341 kts 136°
2026-04-30 09:07 51.61055 -1.03928 29085 ft 349 kts 124°
2026-04-30 09:08 51.59959 -1.00367 29157 ft 361 kts 115°
2026-04-30 09:08 51.59018 -0.96557 29228 ft 372 kts 114°
2026-04-30 09:08 51.57064 -0.88636 29379 ft 391 kts 114°
2026-04-30 09:09 51.54962 -0.80384 29562 ft 406 kts 115°
2026-04-30 09:09 51.53879 -0.76169 29867 ft 408 kts 115°
2026-04-30 09:09 51.52798 -0.71964 30258 ft 408 kts 115°
2026-04-30 09:10 51.51712 -0.67740 30553 ft 409 kts 115°
2026-04-30 09:10 51.50622 -0.63508 30783 ft 412 kts 115°
2026-04-30 09:10 51.49522 -0.59248 31035 ft 413 kts 115°
2026-04-30 09:10 51.48424 -0.54998 31379 ft 412 kts 115°
2026-04-30 09:11 51.47329 -0.50766 31752 ft 410 kts 115°
2026-04-30 09:11 51.46247 -0.46593 32075 ft 410 kts 115°
2026-04-30 09:11 51.45151 -0.42377 32363 ft 410 kts 115°
2026-04-30 09:11 51.44051 -0.38153 32676 ft 410 kts 115°
2026-04-30 09:12 51.42953 -0.33943 33002 ft 409 kts 115°
2026-04-30 09:12 51.41855 -0.29740 33312 ft 409 kts 115°
2026-04-30 09:12 51.40756 -0.25543 33600 ft 409 kts 115°
2026-04-30 09:12 51.39656 -0.21348 33906 ft 408 kts 115°
2026-04-30 09:13 51.38555 -0.17157 34212 ft 408 kts 115°
2026-04-30 09:13 51.37456 -0.12982 34465 ft 408 kts 115°
2026-04-30 09:13 51.36354 -0.08804 34655 ft 409 kts 115°
2026-04-30 09:13 51.35247 -0.04608 34843 ft 410 kts 115°
2026-04-30 09:14 51.34134 -0.00403 35073 ft 410 kts 115°
2026-04-30 09:14 51.33020 0.03797 35268 ft 411 kts 114°
2026-04-30 09:14 51.31924 0.08027 35436 ft 413 kts 113°
2026-04-30 09:14 51.30844 0.12283 35652 ft 413 kts 113°
2026-04-30 09:15 51.29772 0.16534 35897 ft 413 kts 113°
2026-04-30 09:15 51.28698 0.20788 36094 ft 413 kts 113°
2026-04-30 09:15 51.27631 0.24999 36261 ft 414 kts 113°
2026-04-30 09:15 51.26532 0.29319 36446 ft 415 kts 113°
2026-04-30 09:16 51.25443 0.33586 36627 ft 416 kts 113°
2026-04-30 09:16 51.24350 0.37855 36828 ft 416 kts 113°
2026-04-30 09:16 51.23255 0.42121 37022 ft 416 kts 113°
2026-04-30 09:16 51.22172 0.46332 37193 ft 416 kts 113°
2026-04-30 09:17 51.21067 0.50618 37300 ft 418 kts 113°
2026-04-30 09:17 51.19958 0.54913 37312 ft 420 kts 113°
2026-04-30 09:17 51.17732 0.63511 37309 ft 418 kts 113°
2026-04-30 09:18 51.15516 0.72039 37298 ft 415 kts 113°
2026-04-30 09:18 51.13308 0.80507 37291 ft 413 kts 113°
2026-04-30 09:19 51.11102 0.88933 37287 ft 411 kts 113°
2026-04-30 09:19 51.08897 0.97327 37264 ft 411 kts 113°
2026-04-30 09:20 51.06687 1.05710 37268 ft 412 kts 113°
2026-04-30 09:20 51.04465 1.14117 37269 ft 413 kts 113°
2026-04-30 09:21 51.02610 1.21127 37262 ft 415 kts 113°
2026-04-30 09:21 51.00366 1.29583 37280 ft 416 kts 113°
2026-04-30 09:22 50.98110 1.38056 37265 ft 418 kts 113°
2026-04-30 09:22 50.95838 1.46553 37262 ft 419 kts 113°
2026-04-30 09:23 50.93533 1.55054 37267 ft 420 kts 114°
2026-04-30 09:23 50.91211 1.63560 37272 ft 421 kts 114°
2026-04-30 09:24 50.88771 1.71996 37254 ft 421 kts 121°
2026-04-30 09:24 50.85119 1.79212 37264 ft 422 kts 135°
2026-04-30 09:25 50.80844 1.85577 37259 ft 422 kts 136°
2026-04-30 09:25 50.76569 1.91921 37260 ft 422 kts 135°
2026-04-30 09:26 50.72304 1.98288 37265 ft 422 kts 135°
2026-04-30 09:26 50.68047 2.04659 37269 ft 422 kts 135°
2026-04-30 09:27 50.63785 2.11028 37257 ft 422 kts 135°
2026-04-30 09:27 50.59524 2.17379 37254 ft 422 kts 135°
2026-04-30 09:28 50.55284 2.23680 37274 ft 422 kts 135°
2026-04-30 09:28 50.51012 2.30013 37263 ft 422 kts 135°
2026-04-30 09:29 50.46740 2.36330 37244 ft 422 kts 135°
2026-04-30 09:29 50.42464 2.42635 37255 ft 422 kts 135°
2026-04-30 09:30 50.38183 2.48931 37263 ft 422 kts 135°
2026-04-30 09:30 50.33893 2.55225 37270 ft 422 kts 135°
2026-04-30 09:31 50.29600 2.61506 37244 ft 423 kts 135°
2026-04-30 09:31 50.25299 2.67784 37257 ft 423 kts 135°
2026-04-30 09:32 50.20995 2.74048 37239 ft 423 kts 135°
2026-04-30 09:32 50.16678 2.80316 37250 ft 424 kts 136°
2026-04-30 09:33 50.12359 2.86570 37242 ft 424 kts 135°
2026-04-30 09:33 50.08037 2.92815 37239 ft 424 kts 136°
2026-04-30 09:34 50.03712 2.99046 37241 ft 424 kts 136°
2026-04-30 09:34 49.99386 3.05262 37237 ft 424 kts 136°
2026-04-30 09:35 49.95049 3.11479 37264 ft 424 kts 136°
2026-04-30 09:35 49.90714 3.17679 37230 ft 424 kts 135°
2026-04-30 09:36 49.86371 3.23874 37251 ft 424 kts 135°
2026-04-30 09:36 49.82032 3.30048 37228 ft 424 kts 136°
2026-04-30 09:37 49.78087 3.36775 37262 ft 422 kts 127°
2026-04-30 09:37 49.74474 3.43932 37252 ft 422 kts 127°
2026-04-30 09:38 49.70851 3.51088 37249 ft 423 kts 127°
2026-04-30 09:38 49.67194 3.58212 37237 ft 423 kts 127°
2026-04-30 09:39 49.63520 3.65314 37229 ft 424 kts 127°
2026-04-30 09:39 49.59830 3.72417 37248 ft 425 kts 127°
2026-04-30 09:40 49.56152 3.79478 37248 ft 425 kts 127°
2026-04-30 09:40 49.52419 3.86627 37244 ft 426 kts 127°
2026-04-30 09:41 49.48705 3.93721 37240 ft 426 kts 127°
2026-04-30 09:41 49.45003 4.00771 37245 ft 426 kts 127°
2026-04-30 09:42 49.41280 4.07845 37231 ft 426 kts 127°
2026-04-30 09:42 49.37555 4.14904 37238 ft 426 kts 128°
2026-04-30 09:43 49.33820 4.21959 37239 ft 425 kts 127°
2026-04-30 09:43 49.30091 4.28989 37246 ft 425 kts 127°
2026-04-30 09:44 49.26357 4.36007 37231 ft 425 kts 127°
2026-04-30 09:44 49.22620 4.43013 37231 ft 425 kts 128°
2026-04-30 09:45 49.18874 4.50016 37239 ft 426 kts 127°
2026-04-30 09:45 49.15118 4.57021 37231 ft 427 kts 127°
2026-04-30 09:46 49.11350 4.64030 37236 ft 427 kts 127°
2026-04-30 09:46 49.07568 4.71046 37216 ft 429 kts 127°
2026-04-30 09:47 49.03768 4.78076 37220 ft 430 kts 127°
2026-04-30 09:47 48.99956 4.85111 37222 ft 431 kts 127°
2026-04-30 09:48 48.96144 4.92129 37211 ft 431 kts 128°
2026-04-30 09:48 48.92325 4.99143 37225 ft 430 kts 127°
2026-04-30 09:49 48.88576 5.06151 37211 ft 429 kts 122°
2026-04-30 09:49 48.85591 5.13912 37218 ft 425 kts 117°
2026-04-30 09:50 48.82734 5.21796 37219 ft 426 kts 117°
2026-04-30 09:50 48.79855 5.29638 37216 ft 426 kts 117°
2026-04-30 09:51 48.76945 5.37461 37211 ft 426 kts 117°
2026-04-30 09:51 48.74020 5.45268 37231 ft 425 kts 117°
2026-04-30 09:52 48.71092 5.53060 37219 ft 426 kts 117°
2026-04-30 09:52 48.68161 5.60833 37223 ft 425 kts 117°
2026-04-30 09:53 48.65222 5.68608 37237 ft 426 kts 117°
2026-04-30 09:53 48.62277 5.76379 37241 ft 426 kts 117°
2026-04-30 09:54 48.59320 5.84155 37247 ft 427 kts 117°
2026-04-30 09:54 48.56352 5.91941 37234 ft 429 kts 118°
2026-04-30 09:55 48.53368 5.99741 37241 ft 429 kts 117°
2026-04-30 09:55 48.50377 6.07539 37242 ft 430 kts 118°
2026-04-30 09:56 48.47373 6.15346 37230 ft 431 kts 118°
2026-04-30 09:56 48.44382 6.23097 37238 ft 431 kts 118°
2026-04-30 09:57 48.41360 6.30907 37223 ft 432 kts 118°
2026-04-30 09:57 48.38327 6.38720 37231 ft 432 kts 118°
2026-04-30 09:58 48.35292 6.46519 37230 ft 433 kts 118°
2026-04-30 09:58 48.32246 6.54321 37217 ft 432 kts 118°
2026-04-30 09:59 48.26149 6.69868 37209 ft 431 kts 118°
2026-04-30 10:00 48.21583 6.81454 37216 ft 430 kts 118°
2026-04-30 10:01 48.16997 6.93043 37242 ft 432 kts 117°
2026-04-30 10:02 48.12401 7.04605 37254 ft 434 kts 118°
2026-04-30 10:02 48.09305 7.12364 37265 ft 435 kts 118°
2026-04-30 10:03 48.06196 7.20134 37254 ft 436 kts 118°
2026-04-30 10:03 48.03076 7.27910 37274 ft 437 kts 118°
2026-04-30 10:04 47.99947 7.35688 37267 ft 437 kts 118°
2026-04-30 10:04 47.96808 7.43468 37259 ft 438 kts 119°
2026-04-30 10:05 47.93662 7.51245 37249 ft 438 kts 119°
2026-04-30 10:05 47.90568 7.59073 37242 ft 437 kts 114°
2026-04-30 10:06 47.88365 7.67473 37236 ft 436 kts 107°
2026-04-30 10:06 47.86309 7.75961 37233 ft 436 kts 107°
2026-04-30 10:07 47.84204 7.84442 37236 ft 437 kts 107°
2026-04-30 10:07 47.82061 7.92913 37234 ft 438 kts 108°
2026-04-30 10:08 47.79899 8.01390 37241 ft 438 kts 107°
2026-04-30 10:08 47.77733 8.09854 37238 ft 439 kts 108°
2026-04-30 10:09 47.75558 8.18326 37243 ft 438 kts 108°
2026-04-30 10:09 47.73380 8.26781 37245 ft 438 kts 108°
2026-04-30 10:10 47.71201 8.35213 37244 ft 437 kts 108°
2026-04-30 10:10 47.69385 8.42217 37261 ft 437 kts 108°
2026-04-30 10:11 47.67318 8.50698 37262 ft 437 kts 105°
2026-04-30 10:11 47.65419 8.59264 37259 ft 437 kts 105°
2026-04-30 10:12 47.63508 8.67830 37260 ft 438 kts 106°
2026-04-30 10:12 47.61564 8.76391 37260 ft 439 kts 105°
2026-04-30 10:13 47.59600 8.84954 37272 ft 440 kts 106°
2026-04-30 10:13 47.57619 8.93543 37263 ft 441 kts 106°
2026-04-30 10:14 47.55631 9.02135 37262 ft 441 kts 106°
2026-04-30 10:14 47.52631 9.15034 37250 ft 442 kts 106°
2026-04-30 10:15 47.50635 9.23578 37264 ft 442 kts 106°
2026-04-30 10:15 47.48620 9.32168 37247 ft 442 kts 106°
2026-04-30 10:16 47.46597 9.40755 37264 ft 442 kts 106°
2026-04-30 10:17 47.43549 9.53642 37264 ft 441 kts 106°
2026-04-30 10:17 47.40577 9.66417 37257 ft 439 kts 101°
2026-04-30 10:18 47.39384 9.75195 37257 ft 435 kts 97°
2026-04-30 10:19 47.37777 9.88354 37248 ft 434 kts 97°
2026-04-30 10:19 47.36641 9.97106 37220 ft 434 kts 98°
2026-04-30 10:20 47.35480 10.05866 37219 ft 436 kts 98°
2026-04-30 10:20 47.33719 10.19087 37222 ft 440 kts 98°
2026-04-30 10:21 47.31850 10.27680 37220 ft 449 kts 121°
2026-04-30 10:21 47.29829 10.31213 37212 ft 455 kts 137°
2026-04-30 10:21 47.27208 10.33850 37247 ft 458 kts 147°
2026-04-30 10:22 47.21730 10.38581 37253 ft 460 kts 147°
2026-04-30 10:22 47.16239 10.43442 37211 ft 461 kts 146°
2026-04-30 10:23 47.10768 10.48360 37241 ft 461 kts 146°
2026-04-30 10:23 47.05624 10.53908 37248 ft 457 kts 132°
2026-04-30 10:24 47.01781 10.61237 37270 ft 453 kts 120°
2026-04-30 10:24 46.98356 10.68989 37262 ft 454 kts 120°
2026-04-30 10:25 46.94884 10.76731 37281 ft 455 kts 121°
2026-04-30 10:25 46.91372 10.84445 37283 ft 455 kts 121°
2026-04-30 10:26 46.87851 10.92138 37278 ft 456 kts 121°
2026-04-30 10:26 46.84319 10.99847 37253 ft 457 kts 121°
2026-04-30 10:27 46.80727 11.07520 37268 ft 458 kts 126°
2026-04-30 10:27 46.76626 11.14640 37261 ft 459 kts 129°
2026-04-30 10:28 46.72378 11.21628 37254 ft 461 kts 129°
2026-04-30 10:28 46.68145 11.28654 37242 ft 462 kts 129°
2026-04-30 10:29 46.63929 11.35725 37234 ft 463 kts 128°
2026-04-30 10:29 46.59722 11.42798 37245 ft 462 kts 129°
2026-04-30 10:30 46.55516 11.49852 37240 ft 461 kts 129°
2026-04-30 10:30 46.51315 11.56879 37259 ft 461 kts 129°
2026-04-30 10:31 46.47103 11.63902 37252 ft 461 kts 129°
2026-04-30 10:31 46.42885 11.70916 37262 ft 461 kts 129°
2026-04-30 10:32 46.38690 11.77875 37263 ft 462 kts 129°
2026-04-30 10:32 46.34424 11.84936 37270 ft 463 kts 129°
2026-04-30 10:33 46.30172 11.91954 37267 ft 464 kts 129°
2026-04-30 10:33 46.25936 11.98928 37270 ft 466 kts 129°
2026-04-30 10:34 46.21646 12.05972 37312 ft 468 kts 129°
2026-04-30 10:34 46.17332 12.13037 37285 ft 470 kts 129°
2026-04-30 10:35 46.12994 12.20123 37310 ft 472 kts 129°
2026-04-30 10:35 46.08637 12.27222 37320 ft 473 kts 130°
2026-04-30 10:36 46.04267 12.34325 37328 ft 474 kts 130°
2026-04-30 10:36 45.99887 12.41425 37331 ft 474 kts 130°
2026-04-30 10:37 45.95510 12.48501 37320 ft 473 kts 130°
2026-04-30 10:37 45.91139 12.55549 37319 ft 472 kts 130°
2026-04-30 10:38 45.86774 12.62571 37316 ft 471 kts 130°
2026-04-30 10:38 45.82414 12.69566 37341 ft 470 kts 130°
2026-04-30 10:39 45.78050 12.76552 37320 ft 470 kts 130°
2026-04-30 10:39 45.73712 12.83479 37316 ft 471 kts 130°
2026-04-30 10:40 45.69337 12.90448 37313 ft 471 kts 130°
2026-04-30 10:40 45.65140 12.97651 37317 ft 471 kts 126°
2026-04-30 10:41 45.61161 13.05086 37298 ft 472 kts 125°
2026-04-30 10:41 45.57148 13.12520 37323 ft 473 kts 126°
2026-04-30 10:42 45.53087 13.19928 37313 ft 475 kts 126°
2026-04-30 10:42 45.49001 13.27350 37307 ft 476 kts 127°
2026-04-30 10:43 45.44701 13.34548 37315 ft 478 kts 130°
2026-04-30 10:43 45.40232 13.41587 37303 ft 479 kts 131°
2026-04-30 10:44 45.35757 13.48627 37283 ft 480 kts 131°
2026-04-30 10:44 45.31302 13.55684 37294 ft 479 kts 130°
2026-04-30 10:45 45.26857 13.62743 37311 ft 479 kts 131°
2026-04-30 10:45 45.22412 13.69791 37295 ft 479 kts 131°
2026-04-30 10:46 45.17967 13.76817 37293 ft 478 kts 131°
2026-04-30 10:46 45.13521 13.83826 37289 ft 478 kts 131°
2026-04-30 10:47 45.09079 13.90810 37280 ft 477 kts 131°
2026-04-30 10:47 45.04638 13.97775 37291 ft 476 kts 131°
2026-04-30 10:48 45.00200 14.04717 37290 ft 476 kts 131°
2026-04-30 10:48 44.95759 14.11648 37282 ft 475 kts 132°
2026-04-30 10:49 44.91348 14.18514 37286 ft 475 kts 132°
2026-04-30 10:49 44.86905 14.25414 37268 ft 475 kts 133°
2026-04-30 10:50 44.82452 14.32312 37282 ft 476 kts 133°
2026-04-30 10:50 44.77989 14.39208 37281 ft 477 kts 133°
2026-04-30 10:51 44.73503 14.46121 37275 ft 479 kts 133°
2026-04-30 10:51 44.68999 14.53046 37290 ft 480 kts 133°
2026-04-30 10:52 44.64479 14.59979 37267 ft 482 kts 133°
2026-04-30 10:52 44.59943 14.66918 37256 ft 483 kts 133°
2026-04-30 10:53 44.55391 14.73865 37263 ft 484 kts 133°
2026-04-30 10:53 44.50828 14.80811 37265 ft 485 kts 133°
2026-04-30 10:54 44.46249 14.87763 37266 ft 486 kts 133°
2026-04-30 10:54 44.41662 14.94712 37261 ft 486 kts 133°
2026-04-30 10:55 44.37066 15.01656 37238 ft 486 kts 134°
2026-04-30 10:55 44.32468 15.08587 37258 ft 486 kts 134°
2026-04-30 10:56 44.27871 15.15497 37249 ft 485 kts 133°
2026-04-30 10:56 44.23279 15.22385 37237 ft 484 kts 133°
2026-04-30 10:57 44.18695 15.29244 37237 ft 482 kts 133°
2026-04-30 10:57 44.14156 15.36018 37216 ft 481 kts 134°
2026-04-30 10:58 44.09595 15.42808 37241 ft 480 kts 134°
2026-04-30 10:58 44.05035 15.49581 37237 ft 479 kts 134°
2026-04-30 10:59 44.00479 15.56331 37236 ft 479 kts 134°
2026-04-30 10:59 43.95918 15.63073 37230 ft 479 kts 134°
2026-04-30 11:00 43.92119 15.68675 37229 ft 480 kts 134°
2026-04-30 11:00 43.87538 15.75417 37199 ft 481 kts 135°
2026-04-30 11:01 43.82943 15.82163 37204 ft 482 kts 135°
2026-04-30 11:01 43.78330 15.88919 37200 ft 483 kts 135°
2026-04-30 11:02 43.73699 15.95685 37189 ft 485 kts 135°
2026-04-30 11:02 43.69049 16.02463 37198 ft 486 kts 135°
2026-04-30 11:03 43.64387 16.09243 37180 ft 487 kts 135°
2026-04-30 11:04 43.57378 16.19406 37156 ft 487 kts 135°
2026-04-30 11:04 43.52705 16.26164 36984 ft 488 kts 135°
2026-04-30 11:04 43.50373 16.29550 36657 ft 484 kts 133°
2026-04-30 11:05 43.48295 16.33169 36263 ft 480 kts 124°
2026-04-30 11:05 43.46481 16.36998 35905 ft 476 kts 123°
2026-04-30 11:05 43.44715 16.40841 35497 ft 473 kts 123°
2026-04-30 11:05 43.42969 16.44659 35103 ft 470 kts 123°
2026-04-30 11:06 43.41225 16.48449 34682 ft 467 kts 123°
2026-04-30 11:06 43.39482 16.52202 34304 ft 465 kts 124°
2026-04-30 11:06 43.37734 16.55932 33870 ft 463 kts 124°
2026-04-30 11:06 43.35988 16.59636 33450 ft 461 kts 124°
2026-04-30 11:07 43.34271 16.63267 33044 ft 458 kts 125°
2026-04-30 11:07 43.32539 16.66919 32665 ft 455 kts 125°
2026-04-30 11:07 43.30816 16.70549 32308 ft 452 kts 125°
2026-04-30 11:07 43.29106 16.74147 31937 ft 449 kts 125°
2026-04-30 11:08 43.27404 16.77726 31570 ft 447 kts 125°
2026-04-30 11:08 43.25709 16.81285 31209 ft 444 kts 125°
2026-04-30 11:08 43.24021 16.84825 30841 ft 442 kts 125°
2026-04-30 11:08 43.22342 16.88344 30484 ft 440 kts 125°
2026-04-30 11:09 43.20673 16.91838 30113 ft 438 kts 126°
2026-04-30 11:09 43.19008 16.95318 29697 ft 435 kts 126°
2026-04-30 11:09 43.17357 16.98766 29307 ft 431 kts 126°
2026-04-30 11:09 43.15718 17.02186 28949 ft 427 kts 126°
2026-04-30 11:10 43.14090 17.05577 28568 ft 424 kts 126°
2026-04-30 11:10 43.12477 17.08934 28188 ft 421 kts 127°
2026-04-30 11:10 43.10874 17.12268 27847 ft 417 kts 127°
2026-04-30 11:10 43.09285 17.15567 27490 ft 414 kts 127°
2026-04-30 11:11 43.07704 17.18846 27129 ft 411 kts 127°
2026-04-30 11:11 43.06134 17.22097 26782 ft 409 kts 127°
2026-04-30 11:11 43.04572 17.25330 26425 ft 406 kts 127°
2026-04-30 11:11 43.03017 17.28544 26093 ft 404 kts 127°
2026-04-30 11:12 43.01474 17.31731 25742 ft 401 kts 127°
2026-04-30 11:12 42.99937 17.34902 25413 ft 399 kts 127°
2026-04-30 11:12 42.98408 17.38051 25075 ft 397 kts 127°
2026-04-30 11:12 42.96887 17.41184 24725 ft 395 kts 127°
2026-04-30 11:13 42.95372 17.44299 24404 ft 393 kts 127°
2026-04-30 11:13 42.93862 17.47403 24066 ft 391 kts 127°
2026-04-30 11:13 42.92360 17.50485 23722 ft 390 kts 127°
2026-04-30 11:13 42.90862 17.53555 23333 ft 388 kts 127°
2026-04-30 11:14 42.89380 17.56622 23005 ft 385 kts 126°
2026-04-30 11:14 42.87932 17.59675 22658 ft 383 kts 126°
2026-04-30 11:14 42.86500 17.62715 22335 ft 379 kts 126°
2026-04-30 11:14 42.85079 17.65732 21978 ft 376 kts 126°
2026-04-30 11:15 42.83673 17.68712 21653 ft 372 kts 126°
2026-04-30 11:15 42.82293 17.71630 21329 ft 370 kts 126°
2026-04-30 11:15 42.80882 17.74606 20996 ft 368 kts 126°
2026-04-30 11:15 42.79516 17.77485 20677 ft 366 kts 126°
2026-04-30 11:16 42.78136 17.80387 20351 ft 364 kts 126°
2026-04-30 11:16 42.76762 17.83273 20027 ft 362 kts 126°
2026-04-30 11:16 42.75395 17.86141 19711 ft 361 kts 126°
2026-04-30 11:16 42.74033 17.88997 19390 ft 359 kts 126°
2026-04-30 11:17 42.72677 17.91836 19072 ft 357 kts 126°
2026-04-30 11:17 42.71325 17.94667 18748 ft 356 kts 126°
2026-04-30 11:17 42.69977 17.97485 18434 ft 355 kts 126°
2026-04-30 11:17 42.68629 18.00299 18076 ft 355 kts 125°
2026-04-30 11:18 42.67284 18.03106 17714 ft 354 kts 125°
2026-04-30 11:18 42.64616 18.08666 17060 ft 349 kts 125°
2026-04-30 11:18 42.63296 18.11414 16738 ft 346 kts 124°
2026-04-30 11:19 42.61983 18.14144 16422 ft 344 kts 124°
2026-04-30 11:19 42.60677 18.16856 16105 ft 342 kts 124°
2026-04-30 11:19 42.59380 18.19550 15806 ft 341 kts 124°
2026-04-30 11:19 42.58085 18.22238 15488 ft 339 kts 124°
2026-04-30 11:20 42.56797 18.24905 15183 ft 337 kts 124°
2026-04-30 11:20 42.55515 18.27557 14873 ft 335 kts 124°
2026-04-30 11:20 42.54213 18.30166 14599 ft 332 kts 126°
2026-04-30 11:20 42.52901 18.32712 14357 ft 327 kts 126°
2026-04-30 11:21 42.51600 18.35220 14113 ft 323 kts 126°
2026-04-30 11:21 42.50314 18.37702 13870 ft 320 kts 126°
2026-04-30 11:21 42.49046 18.40157 13598 ft 317 kts 126°
2026-04-30 11:21 42.47791 18.42589 13327 ft 313 kts 126°
2026-04-30 11:22 42.46550 18.44995 13076 ft 310 kts 126°
2026-04-30 11:22 42.45318 18.47379 12804 ft 307 kts 126°
2026-04-30 11:22 42.44084 18.49749 12378 ft 311 kts 127°
2026-04-30 11:22 42.42828 18.52132 12031 ft 309 kts 127°
2026-04-30 11:23 42.41581 18.54489 11719 ft 307 kts 127°
2026-04-30 11:23 42.40359 18.56807 11365 ft 308 kts 126°
2026-04-30 11:23 42.37887 18.61530 10722 ft 307 kts 126°
2026-04-30 11:24 42.36634 18.63926 10299 ft 310 kts 126°
2026-04-30 11:24 42.35405 18.66272 9982 ft 309 kts 126°
2026-04-30 11:24 42.34159 18.68647 9617 ft 309 kts 126°
2026-04-30 11:25 42.31661 18.73403 8955 ft 308 kts 126°
2026-04-30 11:25 42.30445 18.75719 8622 ft 304 kts 125°
2026-04-30 11:25 42.28045 18.80318 8020 ft 291 kts 122°
2026-04-30 11:26 42.26267 18.85138 7318 ft 284 kts 113°
2026-04-30 11:26 42.25440 18.87539 7040 ft 279 kts 114°
2026-04-30 11:26 42.24620 18.89853 6920 ft 267 kts 115°
2026-04-30 11:27 42.23822 18.92070 6825 ft 259 kts 116°
2026-04-30 11:27 42.23043 18.94224 6727 ft 252 kts 115°
2026-04-30 11:27 42.22280 18.96324 6627 ft 246 kts 116°
2026-04-30 11:27 42.21245 18.98096 6512 ft 240 kts 146°
2026-04-30 11:28 42.18136 18.98469 6132 ft 232 kts 203°
2026-04-30 11:28 42.16797 18.97271 5907 ft 233 kts 223°
2026-04-30 11:28 42.15642 18.95729 5659 ft 234 kts 234°
2026-04-30 11:29 42.15078 18.93727 5399 ft 230 kts 271°
2026-04-30 11:29 42.15240 18.91600 5201 ft 230 kts 284°
2026-04-30 11:29 42.15977 18.87405 4693 ft 230 kts 299°
2026-04-30 11:30 42.18377 18.85012 4287 ft 212 kts 343°
2026-04-30 11:30 42.19741 18.84328 4037 ft 207 kts 344°
2026-04-30 11:30 42.21075 18.83670 3799 ft 201 kts 345°
2026-04-30 11:31 42.22363 18.83024 3593 ft 194 kts 344°
2026-04-30 11:31 42.23601 18.82395 3385 ft 187 kts 345°
2026-04-30 11:31 42.24794 18.81784 3166 ft 180 kts 345°
2026-04-30 11:31 42.25940 18.81195 2964 ft 173 kts 345°
2026-04-30 11:32 42.27045 18.80626 2785 ft 170 kts 345°
2026-04-30 11:32 42.28144 18.80062 2628 ft 169 kts 344°
2026-04-30 11:32 42.29247 18.79495 2392 ft 169 kts 345°
2026-04-30 11:33 42.31437 18.78369 1915 ft 170 kts 342°
2026-04-30 11:33 42.32538 18.77795 1716 ft 169 kts 345°
2026-04-30 11:33 42.33633 18.77227 1435 ft 166 kts 342°
2026-04-30 11:33 42.34694 18.76679 1214 ft 160 kts 342°
2026-04-30 11:34 42.35703 18.76153 987 ft 152 kts 342°
2026-04-30 11:34 42.36654 18.75662 779 ft 143 kts 342°
2026-04-30 11:34 42.37565 18.75179 602 ft 139 kts 341°
2026-04-30 11:34 42.38427 18.74610 377 ft 138 kts 333°
2026-04-30 11:35 42.39184 18.73821 178 ft 139 kts 324°
2026-04-30 11:35 42.39944 18.72939 48 ft 144 kts 322°
2026-04-30 11:35 42.40601 18.72172 38 ft 97 kts 317°
2026-04-30 11:35 42.40914 18.71806 41 ft 19 kts 330°
2026-04-30 11:36 42.40980 18.71830 41 ft 1 kts 43°
2026-04-30 11:36 42.40985 18.71838 42 ft 1 kts 44°
2026-04-30 11:36 42.40993 18.71847 43 ft 2 kts 44°
2026-04-30 11:36 42.41000 18.71857 41 ft 1 kts 43°
2026-04-30 11:37 42.41009 18.71860 42 ft 1 kts
2026-04-30 11:37 42.41017 18.71856 41 ft 1 kts 338°
2026-04-30 11:37 42.41026 18.71848 41 ft 2 kts 329°
2026-04-30 11:37 42.41036 18.71840 40 ft 2 kts 324°
2026-04-30 11:38 42.41048 18.71826 40 ft 4 kts 320°
2026-04-30 11:38 42.41078 18.71792 40 ft 8 kts 319°
2026-04-30 11:38 42.41132 18.71727 40 ft 13 kts 319°
2026-04-30 11:38 42.41201 18.71645 41 ft 12 kts 317°
2026-04-30 11:39 42.41249 18.71595 42 ft 5 kts 353°
2026-04-30 11:39 42.41269 18.71622 42 ft 3 kts 105°
2026-04-30 11:39 42.41263 18.71635 42 ft 2 kts 120°
2026-04-30 11:39 42.41258 18.71642 42 ft 2 kts 140°
2026-04-30 11:40 42.41254 18.71645 43 ft 0 kts 148°
2026-04-30 11:40 42.41255 18.71644 43 ft 0 kts 148°